Time,TemperatureF,DewpointF,PressureIn,WindDirection,WindDirectionDegrees,WindSpeedMPH,WindSpeedGustMPH,Humidity,HourlyPrecipIn,Conditions,Clouds,dailyrainin,SoftwareType,DateUTC
2013-09-23 00:01:00,54.2,49.8,29.21,WNW,284,0.0,3.0,85,0.00,,---,0.00,VWS V14.00,2013-09-23 04:01:00,
2013-09-23 00:02:00,54.1,49.7,29.21,WNW,284,0.0,3.0,85,0.00,,---,0.00,VWS V14.00,2013-09-23 04:02:00,
2013-09-23 00:04:00,54.1,49.7,29.21,WNW,284,0.0,3.0,85,0.00,,---,0.00,VWS V14.00,2013-09-23 04:04:00,
2013-09-23 00:06:00,54.0,49.6,29.21,WNW,284,0.0,3.0,85,0.00,,---,0.00,VWS V14.00,2013-09-23 04:06:00,
2013-09-23 00:11:00,53.9,49.8,29.77,WNW,284,0.0,2.0,86,0.00,,---,0.00,VWS V14.00,2013-09-23 04:11:00,
2013-09-23 00:16:00,53.9,49.8,29.77,WNW,284,0.0,2.0,86,0.00,,---,0.00,VWS V14.00,2013-09-23 04:16:00,
2013-09-23 00:21:00,53.7,49.6,29.77,WNW,284,0.0,2.0,86,0.00,,---,0.00,VWS V14.00,2013-09-23 04:21:00,
2013-09-23 00:26:00,53.7,49.9,28.71,WNW,284,0.0,2.0,87,0.00,,---,0.00,VWS V14.00,2013-09-23 04:26:00,
2013-09-23 00:31:00,53.8,50.0,28.71,WNW,284,0.0,2.0,87,0.00,,---,0.00,VWS V14.00,2013-09-23 04:31:00,
2013-09-23 00:37:00,53.7,49.9,29.84,WNW,284,0.0,2.0,87,0.00,,---,0.00,VWS V14.00,2013-09-23 04:37:00,
2013-09-23 00:42:00,53.6,50.1,29.84,WNW,284,2.0,2.0,88,0.00,,---,0.00,VWS V14.00,2013-09-23 04:42:00,
2013-09-23 00:47:00,53.6,50.1,29.86,WNW,284,0.0,2.0,88,0.00,,---,0.00,VWS V14.00,2013-09-23 04:47:00,
2013-09-23 00:52:00,53.6,50.1,29.86,WNW,284,0.0,2.0,88,0.00,,---,0.00,VWS V14.00,2013-09-23 04:52:00,
2013-09-23 00:57:00,53.6,50.1,29.85,WNW,284,0.0,2.0,88,0.00,,---,0.00,VWS V14.00,2013-09-23 04:57:00,
2013-09-23 01:02:00,53.6,50.1,29.85,WNW,284,0.0,2.0,88,0.00,,---,0.00,VWS V14.00,2013-09-23 05:02:00,
2013-09-23 01:07:00,53.6,50.1,29.86,WNW,284,0.0,2.0,88,0.00,,---,0.00,VWS V14.00,2013-09-23 05:07:00,
2013-09-23 01:12:00,53.6,50.1,29.86,WNW,284,0.0,1.0,88,0.00,,---,0.00,VWS V14.00,2013-09-23 05:12:00,
2013-09-23 01:17:00,53.5,50.0,29.86,WNW,284,0.0,2.0,88,0.00,,---,0.00,VWS V14.00,2013-09-23 05:17:00,
2013-09-23 01:22:00,53.4,49.9,29.51,WNW,284,0.0,2.0,88,0.00,,---,0.00,VWS V14.00,2013-09-23 05:22:00,
2013-09-23 01:27:00,53.2,50.0,29.83,WNW,284,0.0,3.0,89,0.00,,---,0.00,VWS V14.00,2013-09-23 05:27:00,
2013-09-23 01:32:00,53.2,50.0,29.81,WNW,284,0.0,3.0,89,0.00,,---,0.00,VWS V14.00,2013-09-23 05:32:00,
2013-09-23 01:37:00,53.1,50.0,29.86,WNW,284,0.0,3.0,89,0.00,,---,0.00,VWS V14.00,2013-09-23 05:37:00,
2013-09-23 01:42:00,53.0,49.8,29.84,WNW,284,0.0,1.0,89,0.00,,---,0.00,VWS V14.00,2013-09-23 05:42:00,
2013-09-23 01:48:00,53.0,49.8,29.86,WNW,285,0.0,3.0,89,0.00,,---,0.00,VWS V14.00,2013-09-23 05:48:00,
2013-09-23 01:53:00,52.9,49.8,29.86,WNW,284,0.0,3.0,89,0.00,,---,0.00,VWS V14.00,2013-09-23 05:53:00,
2013-09-23 01:58:00,52.8,49.7,29.86,WNW,286,1.0,3.0,89,0.00,,---,0.00,VWS V14.00,2013-09-23 05:58:00,
2013-09-23 02:03:00,52.8,49.7,29.86,WNW,287,0.0,4.0,89,0.00,,---,0.00,VWS V14.00,2013-09-23 06:03:00,
2013-09-23 02:08:00,52.7,49.5,29.86,WNW,287,0.0,0.0,89,0.00,,---,0.00,VWS V14.00,2013-09-23 06:08:00,
2013-09-23 02:13:00,52.5,49.4,29.86,WNW,287,0.0,1.0,89,0.00,,---,0.00,VWS V14.00,2013-09-23 06:13:00,
2013-09-23 02:18:00,52.4,49.3,29.86,WNW,287,0.0,1.0,89,0.00,,---,0.00,VWS V14.00,2013-09-23 06:18:00,
2013-09-23 02:23:00,52.4,49.3,29.85,WNW,287,0.0,1.0,89,0.00,,---,0.00,VWS V14.00,2013-09-23 06:23:00,
2013-09-23 02:28:00,52.3,48.9,29.84,WNW,287,0.0,1.0,88,0.00,,---,0.00,VWS V14.00,2013-09-23 06:28:00,
2013-09-23 02:33:00,52.2,48.8,29.86,WNW,287,0.0,1.0,88,0.00,,---,0.00,VWS V14.00,2013-09-23 06:33:00,
2013-09-23 02:39:00,52.0,48.6,29.86,WNW,287,0.0,0.0,88,0.00,,---,0.00,VWS V14.00,2013-09-23 06:39:00,
2013-09-23 02:44:00,51.9,48.5,29.86,WNW,287,0.0,3.0,88,0.00,,---,0.00,VWS V14.00,2013-09-23 06:44:00,
2013-09-23 02:49:00,51.9,48.5,29.86,WNW,287,0.0,3.0,88,0.00,,---,0.00,VWS V14.00,2013-09-23 06:49:00,
2013-09-23 02:54:00,52.1,48.7,29.86,WNW,287,0.0,3.0,88,0.00,,---,0.00,VWS V14.00,2013-09-23 06:54:00,
2013-09-23 02:59:00,52.0,48.6,29.86,WNW,287,0.0,3.0,88,0.00,,---,0.00,VWS V14.00,2013-09-23 06:59:00,
2013-09-23 03:04:00,51.8,48.4,29.86,WNW,287,0.0,3.0,88,0.00,,---,0.00,VWS V14.00,2013-09-23 07:04:00,
2013-09-23 03:09:00,51.6,48.2,29.87,WNW,287,2.0,3.0,88,0.00,,---,0.00,VWS V14.00,2013-09-23 07:09:00,
2013-09-23 03:14:00,51.4,48.0,29.87,WNW,287,2.0,3.0,88,0.00,,---,0.00,VWS V14.00,2013-09-23 07:14:00,
2013-09-23 03:19:00,51.2,47.8,29.87,WNW,287,0.0,3.0,88,0.00,,---,0.00,VWS V14.00,2013-09-23 07:19:00,
2013-09-23 03:24:00,51.1,47.7,29.87,WNW,287,0.0,3.0,88,0.00,,---,0.00,VWS V14.00,2013-09-23 07:24:00,
2013-09-23 03:29:00,51.0,47.9,29.87,WNW,287,0.0,3.0,89,0.00,,---,0.00,VWS V14.00,2013-09-23 07:29:00,
2013-09-23 03:34:00,51.0,47.9,29.87,WNW,287,0.0,3.0,89,0.00,,---,0.00,VWS V14.00,2013-09-23 07:34:00,
2013-09-23 03:39:00,51.0,47.9,29.87,WNW,287,0.0,2.0,89,0.00,,---,0.00,VWS V14.00,2013-09-23 07:39:00,
2013-09-23 03:44:00,51.0,47.9,29.87,WNW,287,0.0,2.0,89,0.00,,---,0.00,VWS V14.00,2013-09-23 07:44:00,
2013-09-23 03:49:00,50.9,47.8,29.87,WNW,287,1.0,3.0,89,0.00,,---,0.00,VWS V14.00,2013-09-23 07:49:00,
2013-09-23 03:54:00,50.8,47.7,29.87,WNW,287,1.0,3.0,89,0.00,,---,0.00,VWS V14.00,2013-09-23 07:54:00,
2013-09-23 04:00:00,50.8,47.7,29.88,WNW,287,0.0,3.0,89,0.00,,---,0.00,VWS V14.00,2013-09-23 08:00:00,
2013-09-23 04:05:00,50.6,47.5,29.87,WNW,287,2.0,3.0,89,0.00,,---,0.00,VWS V14.00,2013-09-23 08:05:00,
2013-09-23 04:10:00,50.5,47.4,29.87,WNW,287,0.0,3.0,89,0.00,,---,0.00,VWS V14.00,2013-09-23 08:10:00,
2013-09-23 04:15:00,50.4,47.3,29.87,WNW,287,0.0,4.0,89,0.00,,---,0.00,VWS V14.00,2013-09-23 08:15:00,
2013-09-23 04:20:00,50.3,47.2,29.87,WNW,287,0.0,4.0,89,0.00,,---,0.00,VWS V14.00,2013-09-23 08:20:00,
2013-09-23 04:25:00,50.3,47.2,29.87,WNW,287,0.0,4.0,89,0.00,,---,0.00,VWS V14.00,2013-09-23 08:25:00,
2013-09-23 04:30:00,50.2,47.1,29.87,WNW,287,2.0,4.0,89,0.00,,---,0.00,VWS V14.00,2013-09-23 08:30:00,
2013-09-23 04:35:00,50.1,47.0,29.87,WNW,287,0.0,4.0,89,0.00,,---,0.00,VWS V14.00,2013-09-23 08:35:00,
2013-09-23 04:40:00,50.1,47.0,29.88,WNW,287,0.0,1.0,89,0.00,,---,0.00,VWS V14.00,2013-09-23 08:40:00,
2013-09-23 04:45:00,50.1,47.0,29.88,WNW,287,0.0,1.0,89,0.00,,---,0.00,VWS V14.00,2013-09-23 08:45:00,
2013-09-23 04:50:00,50.1,47.0,29.88,WNW,287,0.0,1.0,89,0.00,,---,0.00,VWS V14.00,2013-09-23 08:50:00,
2013-09-23 04:55:00,50.1,47.0,29.88,WNW,287,0.0,3.0,89,0.00,,---,0.00,VWS V14.00,2013-09-23 08:55:00,
2013-09-23 05:00:00,50.1,47.0,29.88,WNW,287,0.0,3.0,89,0.00,,---,0.00,VWS V14.00,2013-09-23 09:00:00,
2013-09-23 05:05:00,50.2,47.1,29.88,WNW,287,0.0,3.0,89,0.00,,---,0.00,VWS V14.00,2013-09-23 09:05:00,
2013-09-23 05:11:00,50.2,47.1,29.88,WNW,287,0.0,1.0,89,0.00,,---,0.00,VWS V14.00,2013-09-23 09:11:00,
2013-09-23 05:16:00,50.3,47.2,29.88,WNW,287,2.0,4.0,89,0.00,,---,0.00,VWS V14.00,2013-09-23 09:16:00,
2013-09-23 05:21:00,50.4,47.3,29.88,WNW,288,0.0,4.0,89,0.00,,---,0.00,VWS V14.00,2013-09-23 09:21:00,
2013-09-23 05:26:00,50.4,48.2,29.88,WNW,288,3.0,4.0,92,0.00,,---,0.00,VWS V14.00,2013-09-23 09:26:00,
2013-09-23 05:31:00,50.6,47.5,29.88,WNW,295,3.0,4.0,89,0.00,,---,0.00,VWS V14.00,2013-09-23 09:31:00,
2013-09-23 05:36:00,50.8,47.7,29.88,NW,315,0.0,5.0,89,0.00,,---,0.00,VWS V14.00,2013-09-23 09:36:00,
2013-09-23 05:41:00,50.8,47.4,29.88,NW,314,0.0,1.0,88,0.00,,---,0.00,VWS V14.00,2013-09-23 09:41:00,
2013-09-23 05:46:00,50.5,47.1,29.88,NW,315,0.0,1.0,88,0.00,,---,0.00,VWS V14.00,2013-09-23 09:46:00,
2013-09-23 05:51:00,50.3,46.9,29.89,NW,315,0.0,1.0,88,0.00,,---,0.00,VWS V14.00,2013-09-23 09:51:00,
2013-09-23 05:56:00,50.3,46.9,29.89,NW,315,0.0,1.0,88,0.00,,---,0.00,VWS V14.00,2013-09-23 09:56:00,
2013-09-23 06:01:00,50.2,46.8,29.89,NW,314,0.0,1.0,88,0.00,,---,0.00,VWS V14.00,2013-09-23 10:01:00,
2013-09-23 06:06:00,50.1,46.7,29.89,NW,314,2.0,3.0,88,0.00,,---,0.00,VWS V14.00,2013-09-23 10:06:00,
2013-09-23 06:12:00,50.0,46.6,29.90,NW,314,0.0,2.0,88,0.00,,---,0.00,VWS V14.00,2013-09-23 10:12:00,
2013-09-23 06:17:00,50.0,46.6,29.91,NW,314,0.0,2.0,88,0.00,,---,0.00,VWS V14.00,2013-09-23 10:17:00,
2013-09-23 06:22:00,49.9,46.5,29.91,NW,314,2.0,4.0,88,0.00,,---,0.00,VWS V14.00,2013-09-23 10:22:00,
2013-09-23 06:27:00,49.8,46.4,29.91,NW,318,4.0,4.0,88,0.00,,---,0.00,VWS V14.00,2013-09-23 10:27:00,
2013-09-23 06:32:00,50.0,46.9,29.91,NW,317,3.0,5.0,89,0.00,,---,0.00,VWS V14.00,2013-09-23 10:32:00,
2013-09-23 06:38:00,50.3,46.9,29.91,NNE,15,0.0,1.0,88,0.00,,---,0.00,VWS V14.00,2013-09-23 10:38:00,
2013-09-23 06:43:00,50.3,46.9,29.91,NW,311,5.0,5.0,88,0.00,,---,0.00,VWS V14.00,2013-09-23 10:43:00,
2013-09-23 06:48:00,50.4,47.0,29.92,NW,315,0.0,5.0,88,0.00,,---,0.00,VWS V14.00,2013-09-23 10:48:00,
2013-09-23 06:53:00,50.4,47.0,29.92,NW,319,0.0,5.0,88,0.00,,---,0.00,VWS V14.00,2013-09-23 10:53:00,
2013-09-23 06:58:00,50.5,47.1,29.92,NNW,331,0.0,5.0,88,0.00,,---,0.00,VWS V14.00,2013-09-23 10:58:00,
2013-09-23 07:03:00,50.6,46.9,29.92,NNW,331,2.0,5.0,87,0.00,,---,0.00,VWS V14.00,2013-09-23 11:03:00,
2013-09-23 07:08:00,50.5,46.8,29.92,NNW,331,0.0,0.0,87,0.00,,---,0.00,VWS V14.00,2013-09-23 11:08:00,
2013-09-23 07:13:00,50.5,46.8,29.92,NNW,334,3.0,5.0,87,0.00,,---,0.00,VWS V14.00,2013-09-23 11:13:00,
2013-09-23 07:18:00,50.8,47.4,29.92,North,355,3.0,6.0,88,0.00,,---,0.00,VWS V14.00,2013-09-23 11:18:00,
2013-09-23 07:23:00,50.9,47.2,29.93,NW,325,0.0,6.0,87,0.00,,---,0.00,VWS V14.00,2013-09-23 11:23:00,
2013-09-23 07:28:00,51.2,47.5,29.93,North,11,0.0,6.0,87,0.00,,---,0.00,VWS V14.00,2013-09-23 11:28:00,
2013-09-23 07:33:00,51.1,47.1,29.93,North,355,0.0,6.0,86,0.00,,---,0.00,VWS V14.00,2013-09-23 11:33:00,
2013-09-23 07:38:00,51.0,47.0,29.93,North,355,0.0,1.0,86,0.00,,---,0.00,VWS V14.00,2013-09-23 11:38:00,
2013-09-23 07:43:00,50.6,46.6,29.93,North,355,0.0,1.0,86,0.00,,---,0.00,VWS V14.00,2013-09-23 11:43:00,
2013-09-23 07:48:00,50.5,46.5,29.94,North,355,0.0,3.0,86,0.00,,---,0.00,VWS V14.00,2013-09-23 11:48:00,
2013-09-23 07:54:00,50.5,46.8,29.94,North,355,2.0,3.0,87,0.00,,---,0.00,VWS V14.00,2013-09-23 11:54:00,
2013-09-23 07:59:00,50.6,46.6,29.94,North,355,4.0,4.0,86,0.00,,---,0.00,VWS V14.00,2013-09-23 11:59:00,
2013-09-23 08:04:00,50.9,46.9,29.95,North,355,1.0,4.0,86,0.00,,---,0.00,VWS V14.00,2013-09-23 12:04:00,
2013-09-23 08:09:00,51.3,47.3,29.95,North,355,2.0,3.0,86,0.00,,---,0.00,VWS V14.00,2013-09-23 12:09:00,
2013-09-23 08:14:00,51.7,47.7,29.95,North,355,2.0,3.0,86,0.00,,---,0.00,VWS V14.00,2013-09-23 12:14:00,
2013-09-23 08:19:00,52.2,47.8,29.94,North,355,2.0,4.0,85,0.00,,---,0.00,VWS V14.00,2013-09-23 12:19:00,
2013-09-23 08:24:00,52.5,47.8,29.95,NE,37,3.0,6.0,84,0.00,,---,0.00,VWS V14.00,2013-09-23 12:24:00,
2013-09-23 08:29:00,52.9,48.2,29.95,ENE,73,4.0,7.0,84,0.00,,---,0.00,VWS V14.00,2013-09-23 12:29:00,
2013-09-23 08:34:00,53.4,48.4,29.95,ENE,61,5.0,7.0,83,0.00,,---,0.00,VWS V14.00,2013-09-23 12:34:00,
2013-09-23 08:39:00,53.7,48.7,29.95,NE,48,9.0,9.0,83,0.00,,---,0.00,VWS V14.00,2013-09-23 12:39:00,
2013-09-23 08:44:00,53.5,48.2,29.95,NE,35,6.0,10.0,82,0.00,,---,0.00,VWS V14.00,2013-09-23 12:44:00,
2013-09-23 08:49:00,53.5,48.2,29.95,ENE,59,4.0,10.0,82,0.00,,---,0.00,VWS V14.00,2013-09-23 12:49:00,
2013-09-23 08:55:00,53.7,48.3,29.95,NNE,22,6.0,10.0,82,0.00,,---,0.00,VWS V14.00,2013-09-23 12:55:00,
2013-09-23 09:00:00,53.8,48.4,29.95,NE,37,7.0,10.0,82,0.00,,---,0.00,VWS V14.00,2013-09-23 13:00:00,
2013-09-23 09:05:00,53.9,48.5,29.95,NE,56,6.0,10.0,82,0.00,,---,0.00,VWS V14.00,2013-09-23 13:05:00,
2013-09-23 09:10:00,53.9,48.2,29.09,NE,54,5.0,8.0,81,0.00,,---,0.00,VWS V14.00,2013-09-23 13:10:00,
2013-09-23 09:15:00,53.9,48.2,29.09,NE,42,6.0,9.0,81,0.00,,---,0.00,VWS V14.00,2013-09-23 13:15:00,
2013-09-23 09:20:00,54.0,48.3,28.36,NE,44,6.0,9.0,81,0.00,,---,0.00,VWS V14.00,2013-09-23 13:20:00,
2013-09-23 09:25:00,54.1,48.1,28.36,NE,38,2.0,9.0,80,0.00,,---,0.00,VWS V14.00,2013-09-23 13:25:00,
2013-09-23 09:30:00,54.2,48.2,28.36,NE,50,5.0,9.0,80,0.00,,---,0.00,VWS V14.00,2013-09-23 13:30:00,
2013-09-23 09:36:00,54.5,48.5,28.36,NNE,26,4.0,9.0,80,0.00,,---,0.00,VWS V14.00,2013-09-23 13:36:00,
2013-09-23 09:41:00,54.8,49.1,28.56,NNE,30,5.0,6.0,81,0.00,,---,0.00,VWS V14.00,2013-09-23 13:41:00,
2013-09-23 09:46:00,54.9,48.9,28.56,NE,38,3.0,7.0,80,0.00,,---,0.00,VWS V14.00,2013-09-23 13:46:00,
2013-09-23 09:51:00,55.2,49.2,28.56,NE,42,0.0,7.0,80,0.00,,---,0.00,VWS V14.00,2013-09-23 13:51:00,
2013-09-23 09:56:00,55.7,49.6,28.56,NNE,27,6.0,7.0,80,0.00,,---,0.00,VWS V14.00,2013-09-23 13:56:00,
2013-09-23 10:01:00,55.8,49.7,28.56,NNE,16,4.0,7.0,80,0.00,,---,0.00,VWS V14.00,2013-09-23 14:01:00,
2013-09-23 10:06:00,55.9,49.8,28.56,NNE,32,3.0,7.0,80,0.00,,---,0.00,VWS V14.00,2013-09-23 14:06:00,
2013-09-23 10:11:00,56.1,49.7,28.56,NNE,14,4.0,6.0,79,0.00,,---,0.00,VWS V14.00,2013-09-23 14:11:00,
2013-09-23 10:16:00,56.2,49.8,28.56,NNE,30,4.0,6.0,79,0.00,,---,0.00,VWS V14.00,2013-09-23 14:16:00,
2013-09-23 10:21:00,56.6,50.5,28.56,North,9,2.0,7.0,80,0.00,,---,0.00,VWS V14.00,2013-09-23 14:21:00,
2013-09-23 10:26:00,56.7,50.3,28.56,NE,44,0.0,7.0,79,0.00,,---,0.00,VWS V14.00,2013-09-23 14:26:00,
2013-09-23 10:32:00,56.9,50.5,28.56,NE,36,6.0,9.0,79,0.00,,---,0.00,VWS V14.00,2013-09-23 14:32:00,
2013-09-23 10:37:00,57.0,50.6,28.56,NNE,32,6.0,9.0,79,0.00,,---,0.00,VWS V14.00,2013-09-23 14:37:00,
2013-09-23 10:42:00,57.3,50.8,28.56,NNE,18,7.0,9.0,79,0.00,,---,0.00,VWS V14.00,2013-09-23 14:42:00,
2013-09-23 10:47:00,57.5,50.7,28.56,NNE,21,7.0,11.0,78,0.00,,---,0.00,VWS V14.00,2013-09-23 14:47:00,
2013-09-23 10:52:00,57.7,50.5,28.56,NNE,27,9.0,11.0,77,0.00,,---,0.00,VWS V14.00,2013-09-23 14:52:00,
2013-09-23 10:57:00,58.0,50.8,28.56,NNE,17,6.0,11.0,77,0.00,,---,0.00,VWS V14.00,2013-09-23 14:57:00,
2013-09-23 11:02:00,58.1,50.9,28.56,NE,35,9.0,11.0,77,0.00,,---,0.00,VWS V14.00,2013-09-23 15:02:00,
2013-09-23 11:07:00,58.4,51.2,28.56,NE,42,7.0,11.0,77,0.00,,---,0.00,VWS V14.00,2013-09-23 15:07:00,
2013-09-23 11:12:00,58.6,51.1,28.56,NE,41,6.0,10.0,76,0.00,,---,0.00,VWS V14.00,2013-09-23 15:12:00,
2013-09-23 11:17:00,59.0,51.5,28.56,NNE,20,8.0,10.0,76,0.00,,---,0.00,VWS V14.00,2013-09-23 15:17:00,
2013-09-23 11:22:00,59.0,51.5,28.56,NNE,31,9.0,11.0,76,0.00,,---,0.00,VWS V14.00,2013-09-23 15:22:00,
2013-09-23 11:27:00,59.0,51.5,28.56,NE,46,8.0,12.0,76,0.00,,---,0.00,VWS V14.00,2013-09-23 15:27:00,
2013-09-23 11:33:00,59.6,52.4,28.56,NE,44,10.0,12.0,77,0.00,,---,0.00,VWS V14.00,2013-09-23 15:33:00,
2013-09-23 11:38:00,59.8,51.5,28.56,NNE,30,9.0,10.0,74,0.00,,---,0.00,VWS V14.00,2013-09-23 15:38:00,
2013-09-23 11:43:00,60.2,51.9,28.56,NE,49,10.0,11.0,74,0.00,,---,0.00,VWS V14.00,2013-09-23 15:43:00,
2013-09-23 11:48:00,60.5,52.2,28.56,NE,52,7.0,11.0,74,0.00,,---,0.00,VWS V14.00,2013-09-23 15:48:00,
2013-09-23 11:53:00,60.8,52.5,28.56,NE,45,10.0,12.0,74,0.00,,---,0.00,VWS V14.00,2013-09-23 15:53:00,
2013-09-23 11:58:00,61.0,52.7,28.56,NE,45,10.0,12.0,74,0.00,,---,0.00,VWS V14.00,2013-09-23 15:58:00,
2013-09-23 12:03:00,61.3,51.8,28.56,NE,42,10.0,12.0,71,0.00,,---,0.00,VWS V14.00,2013-09-23 16:03:00,
2013-09-23 12:08:00,61.7,52.2,28.56,NNE,29,10.0,11.0,71,0.00,,---,0.00,VWS V14.00,2013-09-23 16:08:00,
2013-09-23 12:13:00,62.0,52.1,28.56,NNE,28,4.0,12.0,70,0.00,,---,0.00,VWS V14.00,2013-09-23 16:13:00,
2013-09-23 12:18:00,62.4,52.1,28.56,NE,53,10.0,12.0,69,0.00,,---,0.00,VWS V14.00,2013-09-23 16:18:00,
2013-09-23 12:23:00,62.7,52.8,28.56,ENE,69,6.0,12.0,70,0.00,,---,0.00,VWS V14.00,2013-09-23 16:23:00,
2013-09-23 12:28:00,62.7,52.4,28.56,NE,48,10.0,12.0,69,0.00,,---,0.00,VWS V14.00,2013-09-23 16:28:00,
2013-09-23 12:34:00,62.9,52.6,28.56,NE,48,7.0,12.0,69,0.00,,---,0.00,VWS V14.00,2013-09-23 16:34:00,
2013-09-23 12:39:00,62.8,52.1,28.56,NE,48,5.0,10.0,68,0.00,,---,0.00,VWS V14.00,2013-09-23 16:39:00,
2013-09-23 12:44:00,63.0,52.7,28.56,NE,36,6.0,10.0,69,0.00,,---,0.00,VWS V14.00,2013-09-23 16:44:00,
2013-09-23 12:49:00,63.3,52.6,28.56,NE,45,13.0,13.0,68,0.00,,---,0.00,VWS V14.00,2013-09-23 16:49:00,
2013-09-23 12:54:00,63.4,52.3,28.56,NE,35,7.0,13.0,67,0.00,,---,0.00,VWS V14.00,2013-09-23 16:54:00,
2013-09-23 13:00:00,63.5,52.4,28.56,NNE,32,5.0,13.0,67,0.00,,---,0.00,VWS V14.00,2013-09-23 17:00:00,
2013-09-23 13:05:00,63.9,51.9,28.56,NE,55,7.0,13.0,65,0.00,,---,0.00,VWS V14.00,2013-09-23 17:05:00,
2013-09-23 13:10:00,64.1,51.7,28.56,NE,53,8.0,15.0,64,0.00,,---,0.00,VWS V14.00,2013-09-23 17:10:00,
2013-09-23 13:15:00,64.3,51.5,28.56,ENE,68,3.0,15.0,63,0.00,,---,0.00,VWS V14.00,2013-09-23 17:15:00,
2013-09-23 13:20:00,64.5,52.5,28.56,NE,49,5.0,15.0,65,0.00,,---,0.00,VWS V14.00,2013-09-23 17:20:00,
2013-09-23 13:25:00,64.8,52.8,28.56,NNE,26,10.0,15.0,65,0.00,,---,0.00,VWS V14.00,2013-09-23 17:25:00,
2013-09-23 13:30:00,64.8,51.9,28.56,NNE,30,5.0,15.0,63,0.00,,---,0.00,VWS V14.00,2013-09-23 17:30:00,
2013-09-23 13:35:00,64.9,52.0,28.56,NNE,23,3.0,15.0,63,0.00,,---,0.00,VWS V14.00,2013-09-23 17:35:00,
2013-09-23 13:41:00,65.1,51.8,28.56,NE,46,4.0,6.0,62,0.00,,---,0.00,VWS V14.00,2013-09-23 17:41:00,
2013-09-23 13:46:00,65.3,52.4,28.56,NNE,31,8.0,11.0,63,0.00,,---,0.00,VWS V14.00,2013-09-23 17:46:00,
2013-09-23 13:51:00,65.6,51.8,28.56,NNE,29,3.0,11.0,61,0.00,,---,0.00,VWS V14.00,2013-09-23 17:51:00,
2013-09-23 13:56:00,65.6,51.8,28.56,NE,51,4.0,11.0,61,0.00,,---,0.00,VWS V14.00,2013-09-23 17:56:00,
2013-09-23 14:01:00,65.8,52.0,28.56,NE,39,6.0,11.0,61,0.00,,---,0.00,VWS V14.00,2013-09-23 18:01:00,
2013-09-23 14:06:00,65.9,51.6,28.56,NNE,15,5.0,11.0,60,0.00,,---,0.00,VWS V14.00,2013-09-23 18:06:00,
2013-09-23 14:11:00,66.1,53.2,28.56,NE,52,6.0,6.0,63,0.00,,---,0.00,VWS V14.00,2013-09-23 18:11:00,
2013-09-23 14:16:00,66.3,51.6,28.56,NE,35,9.0,10.0,59,0.00,,---,0.00,VWS V14.00,2013-09-23 18:16:00,
2013-09-23 14:21:00,66.4,52.1,29.33,NE,49,10.0,11.0,60,0.00,,---,0.00,VWS V14.00,2013-09-23 18:21:00,
2013-09-23 14:26:00,66.5,52.2,29.33,NE,51,6.0,11.0,60,0.00,,---,0.00,VWS V14.00,2013-09-23 18:26:00,
2013-09-23 14:31:00,66.6,51.8,29.33,NE,44,4.0,11.0,59,0.00,,---,0.00,VWS V14.00,2013-09-23 18:31:00,
2013-09-23 14:36:00,66.7,51.9,29.33,ENE,63,5.0,11.0,59,0.00,,---,0.00,VWS V14.00,2013-09-23 18:36:00,
2013-09-23 14:41:00,66.9,52.1,29.33,NE,38,10.0,12.0,59,0.00,,---,0.00,VWS V14.00,2013-09-23 18:41:00,
2013-09-23 14:46:00,67.0,51.3,29.33,NE,41,3.0,12.0,57,0.00,,---,0.00,VWS V14.00,2013-09-23 18:46:00,
2013-09-23 14:52:00,67.1,51.4,29.33,NE,45,3.0,12.0,57,0.00,,---,0.00,VWS V14.00,2013-09-23 18:52:00,
2013-09-23 14:57:00,67.4,52.1,29.33,ENE,59,6.0,12.0,58,0.00,,---,0.00,VWS V14.00,2013-09-23 18:57:00,
2013-09-23 15:02:00,67.5,52.7,28.00,NE,49,7.0,12.0,59,0.00,,---,0.00,VWS V14.00,2013-09-23 19:02:00,
2013-09-23 15:07:00,67.6,53.2,28.00,NE,49,5.0,12.0,60,0.00,,---,0.00,VWS V14.00,2013-09-23 19:07:00,
2013-09-23 15:12:00,67.7,52.9,28.00,NE,51,7.0,10.0,59,0.00,,---,0.00,VWS V14.00,2013-09-23 19:12:00,
2013-09-23 15:17:00,67.7,52.4,28.00,NE,55,9.0,11.0,58,0.00,,---,0.00,VWS V14.00,2013-09-23 19:17:00,
2013-09-23 15:22:00,67.8,53.0,28.00,NE,42,6.0,11.0,59,0.00,,---,0.00,VWS V14.00,2013-09-23 19:22:00,
2013-09-23 15:28:00,68.0,51.7,28.00,NE,51,10.0,13.0,56,0.00,,---,0.00,VWS V14.00,2013-09-23 19:28:00,
2013-09-23 15:33:00,68.1,52.3,28.00,ENE,68,8.0,13.0,57,0.00,,---,0.00,VWS V14.00,2013-09-23 19:33:00,
2013-09-23 15:38:00,68.0,50.8,28.00,ENE,58,3.0,5.0,54,0.00,,---,0.00,VWS V14.00,2013-09-23 19:38:00,
2013-09-23 15:43:00,68.2,52.4,28.00,ENE,67,7.0,11.0,57,0.00,,---,0.00,VWS V14.00,2013-09-23 19:43:00,
2013-09-23 15:48:00,68.3,52.0,28.00,ENE,59,7.0,11.0,56,0.00,,---,0.00,VWS V14.00,2013-09-23 19:48:00,
2013-09-23 15:53:00,68.4,51.6,28.00,ENE,57,5.0,11.0,55,0.00,,---,0.00,VWS V14.00,2013-09-23 19:53:00,
2013-09-23 15:58:00,68.5,51.7,28.00,East,83,2.0,11.0,55,0.00,,---,0.00,VWS V14.00,2013-09-23 19:58:00,
2013-09-23 16:03:00,68.7,52.9,28.00,NE,45,10.0,12.0,57,0.00,,---,0.00,VWS V14.00,2013-09-23 20:03:00,
2013-09-23 16:08:00,68.8,53.4,28.00,NE,55,7.0,11.0,58,0.00,,---,0.00,VWS V14.00,2013-09-23 20:08:00,
2013-09-23 16:13:00,68.7,51.9,28.00,ENE,65,7.0,14.0,55,0.00,,---,0.00,VWS V14.00,2013-09-23 20:13:00,
2013-09-23 16:18:00,68.8,51.5,28.00,ENE,61,5.0,14.0,54,0.00,,---,0.00,VWS V14.00,2013-09-23 20:18:00,
2013-09-23 16:23:00,68.9,52.6,28.00,NE,49,4.0,14.0,56,0.00,,---,0.00,VWS V14.00,2013-09-23 20:23:00,
2013-09-23 16:28:00,69.1,52.3,28.00,NE,55,7.0,14.0,55,0.00,,---,0.00,VWS V14.00,2013-09-23 20:28:00,
2013-09-23 16:33:00,69.1,52.3,28.00,ENE,64,3.0,14.0,55,0.00,,---,0.00,VWS V14.00,2013-09-23 20:33:00,
2013-09-23 16:38:00,69.2,53.3,28.00,ENE,57,5.0,9.0,57,0.00,,---,0.00,VWS V14.00,2013-09-23 20:38:00,
2013-09-23 16:43:00,69.2,52.8,28.00,NE,45,5.0,10.0,56,0.00,,---,0.00,VWS V14.00,2013-09-23 20:43:00,
2013-09-23 16:48:00,69.3,53.4,28.00,NE,38,3.0,10.0,57,0.00,,---,0.00,VWS V14.00,2013-09-23 20:48:00,
2013-09-23 16:53:00,69.5,53.1,28.00,NE,52,10.0,11.0,56,0.00,,---,0.00,VWS V14.00,2013-09-23 20:53:00,
2013-09-23 16:59:00,69.5,52.6,28.00,NE,36,8.0,12.0,55,0.00,,---,0.00,VWS V14.00,2013-09-23 20:59:00,
2013-09-23 17:04:00,69.5,53.6,28.00,NE,51,6.0,12.0,57,0.00,,---,0.00,VWS V14.00,2013-09-23 21:04:00,
2013-09-23 17:09:00,69.5,52.2,28.00,NE,48,6.0,10.0,54,0.00,,---,0.00,VWS V14.00,2013-09-23 21:09:00,
2013-09-23 17:14:00,69.7,53.8,28.00,NE,48,9.0,10.0,57,0.00,,---,0.00,VWS V14.00,2013-09-23 21:14:00,
2013-09-23 17:19:00,69.8,53.4,28.00,NE,53,7.0,10.0,56,0.00,,---,0.00,VWS V14.00,2013-09-23 21:19:00,
2013-09-23 17:24:00,69.8,53.9,28.00,ENE,59,10.0,12.0,57,0.00,,---,0.00,VWS V14.00,2013-09-23 21:24:00,
2013-09-23 17:29:00,69.8,53.9,28.00,ENE,63,5.0,12.0,57,0.00,,---,0.00,VWS V14.00,2013-09-23 21:29:00,
2013-09-23 17:34:00,69.8,52.4,28.00,ENE,65,7.0,12.0,54,0.00,,---,0.00,VWS V14.00,2013-09-23 21:34:00,
2013-09-23 17:39:00,69.8,52.9,28.00,NE,46,7.0,10.0,55,0.00,,---,0.00,VWS V14.00,2013-09-23 21:39:00,
2013-09-23 17:44:00,69.9,53.0,28.00,NE,35,8.0,11.0,55,0.00,,---,0.00,VWS V14.00,2013-09-23 21:44:00,
2013-09-23 17:49:00,69.9,52.5,28.00,NE,45,6.0,11.0,54,0.00,,---,0.00,VWS V14.00,2013-09-23 21:49:00,
2013-09-23 17:54:00,70.0,52.6,28.00,NE,51,7.0,11.0,54,0.00,,---,0.00,VWS V14.00,2013-09-23 21:54:00,
2013-09-23 17:59:00,70.0,54.1,28.00,NNE,28,8.0,11.0,57,0.00,,---,0.00,VWS V14.00,2013-09-23 21:59:00,
2013-09-23 18:04:00,70.0,52.1,28.00,NE,45,9.0,11.0,53,0.00,,---,0.00,VWS V14.00,2013-09-23 22:04:00,
2013-09-23 18:09:00,70.1,53.2,28.00,NE,34,9.0,10.0,55,0.00,,---,0.00,VWS V14.00,2013-09-23 22:09:00,
2013-09-23 18:14:00,69.9,52.5,28.00,NE,44,8.0,10.0,54,0.00,,---,0.00,VWS V14.00,2013-09-23 22:14:00,
2013-09-23 18:19:00,69.8,51.4,28.00,NE,38,6.0,11.0,52,0.00,,---,0.00,VWS V14.00,2013-09-23 22:19:00,
2013-09-23 18:24:00,69.9,53.5,28.00,NNE,30,10.0,12.0,56,0.00,,---,0.00,VWS V14.00,2013-09-23 22:24:00,
2013-09-23 18:30:00,69.8,52.4,28.00,NE,53,6.0,12.0,54,0.00,,---,0.00,VWS V14.00,2013-09-23 22:30:00,
2013-09-23 18:35:00,69.8,53.9,28.00,NE,55,7.0,12.0,57,0.00,,---,0.00,VWS V14.00,2013-09-23 22:35:00,
2013-09-23 18:40:00,69.9,53.5,28.00,NE,43,7.0,11.0,56,0.00,,---,0.00,VWS V14.00,2013-09-23 22:40:00,
2013-09-23 18:45:00,69.9,54.5,28.00,NE,34,7.0,11.0,58,0.00,,---,0.00,VWS V14.00,2013-09-23 22:45:00,
2013-09-23 18:50:00,69.8,53.9,28.00,NE,36,5.0,11.0,57,0.00,,---,0.00,VWS V14.00,2013-09-23 22:50:00,
2013-09-23 18:55:00,69.6,54.7,28.00,NNE,30,7.0,11.0,59,0.00,,---,0.00,VWS V14.00,2013-09-23 22:55:00,
2013-09-23 19:00:00,69.5,53.6,28.00,NE,37,5.0,11.0,57,0.00,,---,0.00,VWS V14.00,2013-09-23 23:00:00,
2013-09-23 19:05:00,69.3,54.4,28.00,North,5,3.0,11.0,59,0.00,,---,0.00,VWS V14.00,2013-09-23 23:05:00,
2013-09-23 19:10:00,68.9,54.9,28.00,NNE,32,0.0,7.0,61,0.00,,---,0.00,VWS V14.00,2013-09-23 23:10:00,
2013-09-23 19:15:00,68.1,54.2,28.00,North,360,0.0,7.0,61,0.00,,---,0.00,VWS V14.00,2013-09-23 23:15:00,
2013-09-23 19:20:00,67.1,54.1,28.00,North,360,0.0,7.0,63,0.00,,---,0.00,VWS V14.00,2013-09-23 23:20:00,
2013-09-23 19:25:00,66.0,53.5,28.00,North,360,0.0,7.0,64,0.00,,---,0.00,VWS V14.00,2013-09-23 23:25:00,
2013-09-23 19:30:00,64.9,53.3,28.00,NNW,337,0.0,7.0,66,0.00,,---,0.00,VWS V14.00,2013-09-23 23:30:00,
2013-09-23 19:35:00,64.4,53.2,28.00,NNW,337,0.0,7.0,67,0.00,,---,0.00,VWS V14.00,2013-09-23 23:35:00,
2013-09-23 19:40:00,63.9,53.1,28.00,NW,321,1.0,3.0,68,0.00,,---,0.00,VWS V14.00,2013-09-23 23:40:00,
2013-09-23 19:45:00,63.7,53.0,28.00,NW,321,0.0,3.0,68,0.00,,---,0.00,VWS V14.00,2013-09-23 23:45:00,
2013-09-23 19:50:00,63.5,53.2,28.00,NW,324,0.0,3.0,69,0.00,,---,0.00,VWS V14.00,2013-09-23 23:50:00,
2013-09-23 19:55:00,63.3,53.0,28.00,NW,319,3.0,4.0,69,0.00,,---,0.00,VWS V14.00,2013-09-23 23:55:00,
2013-09-23 20:01:00,63.1,52.8,28.00,NW,320,0.0,4.0,69,0.00,,---,0.00,VWS V14.00,2013-09-24 00:01:00,
2013-09-23 20:06:00,62.7,52.8,28.00,NW,319,0.0,4.0,70,0.00,,---,0.00,VWS V14.00,2013-09-24 00:06:00,
2013-09-23 20:11:00,62.5,52.6,28.00,NW,319,0.0,3.0,70,0.00,,---,0.00,VWS V14.00,2013-09-24 00:11:00,
2013-09-23 20:16:00,62.2,52.7,28.00,NW,320,2.0,4.0,71,0.00,,---,0.00,VWS V14.00,2013-09-24 00:16:00,
2013-09-23 20:21:00,62.1,53.0,28.00,NW,320,0.0,4.0,72,0.00,,---,0.00,VWS V14.00,2013-09-24 00:21:00,
2013-09-23 20:26:00,61.7,52.6,28.00,NW,320,1.0,4.0,72,0.00,,---,0.00,VWS V14.00,2013-09-24 00:26:00,
2013-09-23 20:31:00,61.5,52.8,27.07,NW,320,3.0,4.0,73,0.00,,---,0.00,VWS V14.00,2013-09-24 00:31:00,
2013-09-23 20:36:00,61.1,52.8,27.07,NW,320,0.0,4.0,74,0.00,,---,0.00,VWS V14.00,2013-09-24 00:36:00,
2013-09-23 20:41:00,60.9,52.9,27.07,NW,319,0.0,1.0,75,0.00,,---,0.00,VWS V14.00,2013-09-24 00:41:00,
2013-09-23 20:46:00,60.7,52.7,27.07,NW,320,0.0,2.0,75,0.00,,---,0.00,VWS V14.00,2013-09-24 00:46:00,
2013-09-23 20:51:00,60.6,53.0,28.14,NNW,331,0.0,4.0,76,0.00,,---,0.00,VWS V14.00,2013-09-24 00:51:00,
2013-09-23 20:56:00,60.6,53.0,28.14,NNW,331,0.0,4.0,76,0.00,,---,0.00,VWS V14.00,2013-09-24 00:56:00,
2013-09-23 21:01:00,60.5,53.3,28.14,NNW,331,0.0,4.0,77,0.00,,---,0.00,VWS V14.00,2013-09-24 01:01:00,
2013-09-23 21:06:00,60.5,53.3,28.14,NNW,331,0.0,4.0,77,0.00,,---,0.00,VWS V14.00,2013-09-24 01:06:00,
2013-09-23 21:11:00,60.1,53.2,28.14,NNW,331,0.0,2.0,78,0.00,,---,0.00,VWS V14.00,2013-09-24 01:11:00,
2013-09-23 21:16:00,59.9,53.4,28.14,NNW,331,0.0,2.0,79,0.00,,---,0.00,VWS V14.00,2013-09-24 01:16:00,
2013-09-23 21:21:00,59.7,53.5,28.14,NNW,332,0.0,3.0,80,0.00,,---,0.00,VWS V14.00,2013-09-24 01:21:00,
2013-09-23 21:27:00,59.6,53.4,28.14,NNW,332,0.0,3.0,80,0.00,,---,0.00,VWS V14.00,2013-09-24 01:27:00,
2013-09-23 21:32:00,59.6,53.8,28.14,NNW,331,0.0,3.0,81,0.00,,---,0.00,VWS V14.00,2013-09-24 01:32:00,
2013-09-23 21:37:00,59.7,53.9,28.14,NNW,332,0.0,3.0,81,0.00,,---,0.00,VWS V14.00,2013-09-24 01:37:00,
2013-09-23 21:42:00,59.5,54.0,28.14,NNW,331,0.0,2.0,82,0.00,,---,0.00,VWS V14.00,2013-09-24 01:42:00,
2013-09-23 21:47:00,59.0,53.5,28.14,NNW,332,1.0,2.0,82,0.00,,---,0.00,VWS V14.00,2013-09-24 01:47:00,
2013-09-23 21:52:00,59.0,53.8,28.14,NNW,332,0.0,2.0,83,0.00,,---,0.00,VWS V14.00,2013-09-24 01:52:00,
2013-09-23 21:57:00,59.0,53.8,28.14,NNW,332,0.0,2.0,83,0.00,,---,0.00,VWS V14.00,2013-09-24 01:57:00,
2013-09-23 22:02:00,58.9,53.8,28.14,NNE,30,4.0,5.0,83,0.00,,---,0.00,VWS V14.00,2013-09-24 02:02:00,
2013-09-23 22:07:00,59.0,54.2,28.14,NNW,337,0.0,5.0,84,0.00,,---,0.00,VWS V14.00,2013-09-24 02:07:00,
2013-09-23 22:12:00,58.8,54.0,28.14,NNW,337,0.0,1.0,84,0.00,,---,0.00,VWS V14.00,2013-09-24 02:12:00,
2013-09-23 22:17:00,58.4,53.6,28.14,NNW,337,0.0,2.0,84,0.00,,---,0.00,VWS V14.00,2013-09-24 02:17:00,
2013-09-23 22:23:00,58.1,53.3,28.14,NNW,337,2.0,3.0,84,0.00,,---,0.00,VWS V14.00,2013-09-24 02:23:00,
2013-09-23 22:28:00,57.8,53.3,28.14,NNW,337,0.0,3.0,85,0.00,,---,0.00,VWS V14.00,2013-09-24 02:28:00,
2013-09-23 22:33:00,57.6,53.1,28.89,NNW,337,2.0,3.0,85,0.00,,---,0.00,VWS V14.00,2013-09-24 02:33:00,
2013-09-23 22:38:00,57.3,52.8,28.89,NNW,337,1.0,1.0,85,0.00,,---,0.00,VWS V14.00,2013-09-24 02:38:00,
2013-09-23 22:43:00,57.1,52.6,28.89,NNW,337,0.0,3.0,85,0.00,,---,0.00,VWS V14.00,2013-09-24 02:43:00,
2013-09-23 22:48:00,56.9,52.8,28.54,NNW,337,0.0,3.0,86,0.00,,---,0.00,VWS V14.00,2013-09-24 02:48:00,
2013-09-23 22:53:00,56.7,52.6,28.99,NNW,337,0.0,3.0,86,0.00,,---,0.00,VWS V14.00,2013-09-24 02:53:00,
2013-09-23 22:58:00,56.7,52.6,28.99,NNW,337,0.0,3.0,86,0.00,,---,0.00,VWS V14.00,2013-09-24 02:58:00,
2013-09-23 23:03:00,56.6,52.5,29.26,NNW,337,0.0,3.0,86,0.00,,---,0.00,VWS V14.00,2013-09-24 03:03:00,
2013-09-23 23:08:00,56.5,52.4,29.26,NNW,337,2.0,3.0,86,0.00,,---,0.00,VWS V14.00,2013-09-24 03:08:00,
2013-09-23 23:13:00,56.4,52.0,29.26,NNW,337,0.0,3.0,85,0.00,,---,0.00,VWS V14.00,2013-09-24 03:13:00,
2013-09-23 23:18:00,56.5,52.4,29.26,NNW,337,0.0,3.0,86,0.00,,---,0.00,VWS V14.00,2013-09-24 03:18:00,
2013-09-23 23:23:00,56.5,52.0,29.26,NNW,337,0.0,3.0,85,0.00,,---,0.00,VWS V14.00,2013-09-24 03:23:00,
2013-09-23 23:28:00,56.5,52.0,29.26,NNW,337,0.0,3.0,85,0.00,,---,0.00,VWS V14.00,2013-09-24 03:28:00,
2013-09-23 23:33:00,56.7,52.2,29.80,NNW,337,0.0,3.0,85,0.00,,---,0.00,VWS V14.00,2013-09-24 03:33:00,
2013-09-23 23:39:00,56.6,51.8,29.77,NNW,337,1.0,3.0,84,0.00,,---,0.00,VWS V14.00,2013-09-24 03:39:00,
2013-09-23 23:44:00,56.2,51.8,29.77,NNW,337,0.0,3.0,85,0.00,,---,0.00,VWS V14.00,2013-09-24 03:44:00,
2013-09-23 23:49:00,55.9,51.5,29.77,NNW,337,0.0,3.0,85,0.00,,---,0.00,VWS V14.00,2013-09-24 03:49:00,
2013-09-23 23:54:00,55.8,51.7,29.77,NNW,337,0.0,3.0,86,0.00,,---,0.00,VWS V14.00,2013-09-24 03:54:00,
2013-09-23 23:59:00,56.0,51.9,29.77,WNW,290,1.0,4.0,86,0.00,,---,0.00,VWS V14.00,2013-09-24 03:59:00,